Weather History for Bentonville, AR

Change the Weather History Date:

Saturday, May 11, 2013

  Actual Average Record
Temperature  
Mean Temperature 60 °F -  
Max Temperature 71 °F 75 °F 89 °F (1963)
Min Temperature 48 °F 50 °F 34 °F (1969)
Degree Days  
Heating Degree Days 6    
Growing Degree Days 10 (Base 50)    
Moisture  
Dew Point 45 °F    
Average Humidity 62    
Maximum Humidity 94    
Minimum Humidity 28    
Precipitation  
Precipitation 0.00 in - - ()
Sea Level Pressure  
Sea Level Pressure 30.11 in    
Wind  
Wind Speed 4 mph (NNW)    
Max Wind Speed 17 mph    
Max Gust Speed 25 mph    
Visibility 8 miles    
Events      
Averages and records for this station are not official NWS values.
T = Trace of Precipitation, MM = Missing Value Source: NWS Daily Summary

Daily Weather History Graph

Daily Weather History Graph

Search for Another Location

Airport:

Trip Planner

Search our weather history database for the weather conditions in past years. The results will help you decide how hot, cold, wet, or windy it might be!

Date:

Astronomy

May. 11, 2013 Rise Set
Actual Time 6:13 AM CDT 8:13 PM CDT
Civil Twilight 5:45 AM CDT 8:41 PM CDT
Nautical Twilight 5:10 AM CDT 9:16 PM CDT
Astronomical Twilight 4:33 AM CDT 9:53 PM CDT
Moon 7:22 AM CDT (5/11) 9:53 PM CDT (5/11)
Length of Visible Light 14h 56m
Length of Day
14h 00m
Waxing Crescent, 3% of the Moon is Illuminated
May 11
Waxing Crescent
May 17
First Quarter
May 24
Full
May 31
Last Quarter
Jun 8
New

Hourly Weather History & Observations

Time (CDT) Temp. Dew Point Humidity Pressure Visibility Wind Dir Wind Speed Gust Speed Precip Events Conditions
12:15 AM 55.4 °F 51.8 °F 88% 30.05 in 10.0 mi Calm Calm - N/A   Clear
12:35 AM 53.6 °F 50.0 °F 88% 30.05 in 8.0 mi Calm Calm - N/A   Clear
12:55 AM 53.6 °F 50.0 °F 88% 30.06 in 7.0 mi NNW 3.5 mph - N/A   Clear
1:15 AM 53.6 °F 50.0 °F 88% 30.06 in 7.0 mi Calm Calm - N/A   Clear
1:35 AM 53.6 °F 51.8 °F 94% 30.07 in 8.0 mi North 3.5 mph - N/A   Clear
1:55 AM 53.6 °F 50.0 °F 88% 30.08 in 8.0 mi Calm Calm - N/A   Clear
2:15 AM 53.6 °F 50.0 °F 88% 30.07 in 6.0 mi Calm Calm - N/A   Clear
2:35 AM 51.8 °F 48.2 °F 88% 30.07 in 4.0 mi Calm Calm - N/A   Clear
2:55 AM 51.8 °F 48.2 °F 88% 30.08 in 4.0 mi Calm Calm - N/A   Clear
3:15 AM 51.8 °F 48.2 °F 88% 30.08 in 3.0 mi Calm Calm - N/A   Clear
3:35 AM 51.8 °F 48.2 °F 88% 30.07 in 0.8 mi Calm Calm - N/A   Unknown
3:55 AM 51.8 °F 48.2 °F 88% 30.07 in 4.0 mi North 3.5 mph - N/A   Clear
4:15 AM 51.8 °F 48.2 °F 88% 30.06 in 5.0 mi North 3.5 mph - N/A   Clear
4:35 AM 51.8 °F 48.2 °F 88% 30.06 in 5.0 mi North 3.5 mph - N/A   Clear
4:55 AM 51.8 °F 48.2 °F 88% 30.06 in 5.0 mi Calm Calm - N/A   Clear
5:15 AM 51.8 °F 48.2 °F 88% 30.06 in 5.0 mi Calm Calm - N/A   Clear
5:35 AM 50.0 °F 46.4 °F 87% 30.06 in 3.0 mi Calm Calm - N/A   Clear
5:55 AM 48.2 °F 46.4 °F 93% 30.07 in 0.5 mi Calm Calm - N/A   Unknown
6:15 AM 48.2 °F 44.6 °F 87% 30.07 in 0.2 mi Calm Calm - N/A   Unknown
6:35 AM 48.2 °F 44.6 °F 87% 30.08 in 0.2 mi Calm Calm - N/A   Unknown
6:55 AM 48.2 °F 44.6 °F 87% 30.09 in 3.0 mi Calm Calm - N/A   Clear
7:15 AM 50.0 °F 46.4 °F 87% 30.09 in 2.5 mi Calm Calm - N/A   Clear
7:35 AM 50.0 °F 48.2 °F 94% 30.10 in 3.0 mi Calm Calm - N/A   Clear
7:55 AM 51.8 °F 48.2 °F 88% 30.11 in 3.0 mi Calm Calm - N/A   Clear
8:15 AM 53.6 °F 50.0 °F 88% 30.11 in 6.0 mi NW 3.5 mph - N/A   Clear
8:35 AM 55.4 °F 51.8 °F 88% 30.12 in 9.0 mi Calm Calm - N/A   Clear
8:55 AM 57.2 °F 51.8 °F 82% 30.13 in 10.0 mi WNW 4.6 mph - N/A   Clear
9:15 AM 60.8 °F 51.8 °F 72% 30.12 in 10.0 mi NW 8.1 mph - N/A   Clear
9:35 AM 60.8 °F 51.8 °F 72% 30.12 in 10.0 mi NW 8.1 mph - N/A   Clear
9:55 AM 62.6 °F 51.8 °F 68% 30.12 in 10.0 mi NW 8.1 mph - N/A   Clear
10:15 AM 64.4 °F 51.8 °F 64% 30.12 in 10.0 mi NW 6.9 mph - N/A   Clear
10:35 AM 64.4 °F 48.2 °F 56% 30.12 in 10.0 mi North 5.8 mph - N/A   Clear
10:55 AM 66.2 °F 50.0 °F 56% 30.12 in 10.0 mi NNE 5.8 mph - N/A   Clear
11:15 AM 66.2 °F 48.2 °F 52% 30.12 in 10.0 mi North 8.1 mph - N/A   Clear
11:35 AM 68.0 °F 48.2 °F 49% 30.12 in 10.0 mi North 10.4 mph - N/A   Clear
11:55 AM 69.8 °F 50.0 °F 49% 30.13 in 10.0 mi NNE 11.5 mph - N/A   Clear
12:15 PM 69.8 °F 50.0 °F 49% 30.13 in 10.0 mi NNW 11.5 mph 16.1 mph N/A   Clear
12:35 PM 69.8 °F 50.0 °F 49% 30.13 in 10.0 mi North 5.8 mph - N/A   Scattered Clouds
12:55 PM 69.8 °F 51.8 °F 53% 30.12 in 10.0 mi WNW 8.1 mph - N/A   Scattered Clouds
1:15 PM 69.8 °F 50.0 °F 49% 30.12 in 10.0 mi NNW 9.2 mph - N/A   Scattered Clouds
1:35 PM 69.8 °F 50.0 °F 49% 30.12 in 10.0 mi NW 10.4 mph 17.3 mph N/A   Scattered Clouds
1:55 PM 71.6 °F 50.0 °F 46% 30.12 in 10.0 mi NNW 10.4 mph - N/A   Scattered Clouds
2:15 PM 69.8 °F 48.2 °F 46% 30.12 in 10.0 mi NW 6.9 mph - N/A   Mostly Cloudy
2:35 PM 71.6 °F 48.2 °F 43% 30.11 in 10.0 mi NW 8.1 mph - N/A   Overcast
2:55 PM 71.6 °F 48.2 °F 43% 30.11 in 10.0 mi North 9.2 mph 16.1 mph N/A   Mostly Cloudy
3:15 PM 71.6 °F 48.2 °F 43% 30.11 in 10.0 mi NNW 12.7 mph - N/A   Mostly Cloudy
3:35 PM 71.6 °F 51.8 °F 50% 30.10 in 10.0 mi NNW 12.7 mph 17.3 mph N/A   Mostly Cloudy
3:55 PM 71.6 °F 51.8 °F 50% 30.10 in 10.0 mi NNW 11.5 mph - N/A   Scattered Clouds
4:15 PM 71.6 °F 53.6 °F 53% 30.10 in 10.0 mi North 17.3 mph 23.0 mph N/A   Mostly Cloudy
4:35 PM 69.8 °F 50.0 °F 49% 30.11 in 10.0 mi North 16.1 mph 23.0 mph N/A   Partly Cloudy
4:55 PM 69.8 °F 48.2 °F 46% 30.11 in 10.0 mi North 15.0 mph - N/A   Scattered Clouds
5:15 PM 69.8 °F 46.4 °F 43% 30.12 in 10.0 mi North 15.0 mph 25.3 mph N/A   Partly Cloudy
5:35 PM 69.8 °F 44.6 °F 40% 30.12 in 10.0 mi North 17.3 mph 21.9 mph N/A   Clear
5:55 PM 68.0 °F 37.4 °F 33% 30.13 in 10.0 mi North 16.1 mph - N/A   Clear
6:15 PM 68.0 °F 33.8 °F 28% 30.13 in 10.0 mi North 15.0 mph 21.9 mph N/A   Clear
6:35 PM 66.2 °F 35.6 °F 32% 30.13 in 10.0 mi NNW 13.8 mph - N/A   Clear
6:55 PM 66.2 °F 35.6 °F 32% 30.13 in 10.0 mi North 15.0 mph - N/A   Clear
7:15 PM 64.4 °F 35.6 °F 34% 30.13 in 10.0 mi North 13.8 mph 19.6 mph N/A   Clear
7:35 PM 64.4 °F 33.8 °F 32% 30.14 in 10.0 mi North 13.8 mph 17.3 mph N/A   Clear
7:55 PM 62.6 °F 35.6 °F 37% 30.14 in 10.0 mi North 12.7 mph - N/A   Clear
8:15 PM 62.6 °F 33.8 °F 34% 30.15 in 10.0 mi North 11.5 mph - N/A   Clear
8:35 PM 60.8 °F 33.8 °F 36% 30.16 in 10.0 mi North 9.2 mph - N/A   Clear
8:55 PM 60.8 °F 35.6 °F 39% 30.16 in 10.0 mi North 10.4 mph - N/A   Clear
9:15 PM 59.0 °F 35.6 °F 42% 30.17 in 10.0 mi North 9.2 mph - N/A   Clear
9:35 PM 57.2 °F 35.6 °F 44% 30.18 in 10.0 mi North 6.9 mph - N/A   Clear
9:55 PM 57.2 °F 35.6 °F 44% 30.19 in 10.0 mi North 5.8 mph - N/A   Clear
10:15 PM 55.4 °F 35.6 °F 47% 30.20 in 10.0 mi North 5.8 mph - N/A   Clear
10:35 PM 55.4 °F 35.6 °F 47% 30.20 in 10.0 mi North 5.8 mph - N/A   Clear
10:55 PM 55.4 °F 35.6 °F 47% 30.20 in 10.0 mi North 3.5 mph - N/A   Clear
11:15 PM 53.6 °F 35.6 °F 51% 30.20 in 10.0 mi NNW 3.5 mph - N/A   Clear
11:35 PM 53.6 °F 35.6 °F 51% 30.21 in 10.0 mi NNW 3.5 mph - N/A   Clear
11:55 PM 50.0 °F 35.6 °F 58% 30.21 in 10.0 mi Calm Calm - N/A   Clear